Location: Kergonan
(48.2337°N, 4.5518°W)
Time: 15:59:02
(UTC+00:00)

Cosmos 2360 - Pass Details

Date: 18 January 2020
Orbit: 846 x 856 km, 70.8° (Epoch: 18 February)

Event Time Altitude Azimuth Distance (km) Brightness Sun altitude
Rises 06:04:41 0° 202° (SSW) 3,412 7.2 -19.1°
Reaches altitude 10° 06:07:07 10° 202° (SSW) 2,480 6.5 -18.7°
Maximum altitude 06:12:50 81° 115° (ESE) 872 4.3 -17.8°
Drops below altitude 10° 06:18:35 10° 30° (NNE) 2,498 6.9 -16.8°
Sets 06:21:03 0° 29° (NNE) 3,438 7.6 -16.4°
